Weather reports worldwide

Advertisment
Rimini, Italy (16149): temperature & dewpoint: 15.05.2019 13:00:00 - 21.05.2019 13:00:00 (CEST)Rimini, Italy (16149): wind speed: 15.05.2019 13:00:00 - 21.05.2019 13:00:00 (CEST)Rimini, Italy (16149): wind direction: 15.05.2019 13:00:00 - 21.05.2019 13:00:00 (CEST)Rimini, Italy (16149): reduced air pressure: 15.05.2019 13:00:00 - 21.05.2019 13:00:00 (CEST)Rimini, Italy (16149): visibility: 15.05.2019 13:00:00 - 21.05.2019 13:00:00 (CEST)Rimini, Italy (16149): precipitation: 15.05.2019 13:00:00 - 21.05.2019 13:00:00 (CEST)
Date & Time tt [°C] td [°C] ff [km/h] ff [kn] dd ppp [hPa] vv [km] rr [mm]
21.05.2019 13:00:00 21,0 13,0 11 6 SSE - 10 -
21.05.2019 12:00:00 20,0 13,0 11 6 SSE - 10 -
21.05.2019 11:00:00 21,2 11,4 4 2 - 1009,2 10 0,0
21.05.2019 10:00:00 19,0 12,0 13 7 S - 10 -
21.05.2019 09:00:00 17,0 12,0 8 4 S - 10 -
21.05.2019 08:00:00 15,6 11,3 5 3 S 1008,3 10 -
21.05.2019 07:00:00 15,0 10,0 8 4 S - 10 -
21.05.2019 06:00:00 15,0 10,0 8 4 SSW - 10 -
21.05.2019 05:00:00 14,7 9,5 11 6 S 1007,8 10 0,0
21.05.2019 04:00:00 15,0 9,0 16 9 SSW - 10 -
21.05.2019 03:00:00 15,0 9,0 16 9 SSW - 10 -
21.05.2019 02:00:00 14,8 9,1 13 7 SSW 1008,5 10 -
21.05.2019 01:00:00 15,0 9,0 13 7 S - 10 -
21.05.2019 00:00:00 14,0 9,0 9 5 S - 10 -
20.05.2019 23:00:00 15,3 9,1 9 5 S 1008,2 10 0,0
20.05.2019 22:00:00 15,0 10,0 9 5 S - 10 -
20.05.2019 21:00:00 15,0 10,0 11 6 S - 10 -
20.05.2019 20:00:00 16,5 9,6 18 10 S 1007,2 10 -
20.05.2019 19:00:00 17,0 9,0 15 8 SSW - 10 -
20.05.2019 18:00:00 19,0 10,0 18 10 SSW - 10 -
20.05.2019 17:00:00 20,6 9,2 29 16 S 1006,3 10 0,0
20.05.2019 16:00:00 21,0 9,0 21 11 S - 10 -
20.05.2019 15:00:00 21,0 11,0 21 11 S - 10 -
20.05.2019 14:00:00 20,0 10,3 16 9 S 1006,5 10 -
20.05.2019 13:00:00 20,0 10,0 18 10 S - 10 -
20.05.2019 12:00:00 19,0 10,0 16 9 S - 10 -
20.05.2019 11:00:00 19,4 9,2 13 7 S 1006,2 10 0,0
20.05.2019 10:00:00 17,0 10,0 5 3 S - 10 -
20.05.2019 09:00:00 17,0 11,0 4 2 - - 10 -
20.05.2019 08:00:00 14,6 10,2 5 3 S 1005,3 10 -
20.05.2019 07:00:00 12,0 10,0 5 3 S - 10 -
20.05.2019 06:00:00 12,0 10,0 5 3 S - 10 -
20.05.2019 05:00:00 11,8 10,1 8 4 S 1004,8 10 0,0
20.05.2019 04:00:00 12,0 10,0 8 4 S - 10 -
20.05.2019 03:00:00 12,0 11,0 4 2 S - 10 -
20.05.2019 02:00:00 12,3 11,3 5 3 S 1005,0 10 -
20.05.2019 01:00:00 13,0 12,0 5 3 S - 10 -
20.05.2019 00:00:00 13,0 12,0 2 1 S - 7 -
19.05.2019 23:00:00 13,6 12,8 4 2 SSE 1005,3 10 0,0
19.05.2019 22:00:00 14,0 13,0 2 1 - - 10 -
19.05.2019 21:00:00 14,0 13,0 4 2 SSE - 10 -
19.05.2019 20:00:00 13,9 13,0 8 4 SSW 1004,5 10 -
19.05.2019 19:00:00 15,0 14,0 8 4 SW - 10 -
19.05.2019 18:00:00 14,0 13,0 5 3 S - 10 -
19.05.2019 17:00:00 15,2 12,1 11 6 SE 1004,2 10 0,0
19.05.2019 16:00:00 14,0 12,0 9 5 ESE - 6 -
19.05.2019 15:00:00 16,0 14,0 13 7 NNE - 8 -
19.05.2019 14:00:00 16,4 13,8 13 7 NNE 1003,4 10 -
19.05.2019 13:00:00 16,0 14,0 11 6 NNE - 10 -
19.05.2019 12:00:00 16,0 14,0 9 5 NE - 8 -
19.05.2019 11:00:00 16,4 13,7 2 1 - 1004,1 5 0,0
19.05.2019 10:00:00 15,0 13,0 5 3 NE - 5 -
19.05.2019 09:00:00 14,0 13,0 8 4 N - 5 -
19.05.2019 08:00:00 13,8 13,1 4 2 W 1004,1 4,0 -
19.05.2019 07:00:00 13,0 12,0 5 3 SW - 3,8 -
19.05.2019 06:00:00 13,0 12,0 2 1 - - 0,9 -
19.05.2019 05:00:00 13,3 12,5 2 1 - 1004,5 7 0,0
19.05.2019 04:00:00 13,0 12,0 5 3 SW - 10 -
19.05.2019 03:00:00 14,0 13,0 5 3 - - 10 -
19.05.2019 02:00:00 13,7 12,8 2 1 - 1005,2 6 -
19.05.2019 01:00:00 14,0 13,0 2 1 - - 10 -
19.05.2019 00:00:00 14,0 13,0 9 5 ESE - 10 -
18.05.2019 23:00:00 14,4 13,2 8 4 SSE 1005,9 10 0,0
18.05.2019 22:00:00 15,0 13,0 9 5 SE - 10 -
18.05.2019 21:00:00 15,0 13,0 5 3 SSE - 10 -
18.05.2019 20:00:00 15,0 13,3 8 4 ESE 1005,2 10 -
18.05.2019 19:00:00 15,0 13,0 16 9 ESE - 10 -
18.05.2019 18:00:00 16,0 14,0 15 8 E - 6 -
18.05.2019 17:00:00 16,1 14,1 16 9 E 1004,3 10 0,0
18.05.2019 16:00:00 18,0 15,0 18 10 E - 10 -
18.05.2019 15:00:00 17,0 14,0 16 9 E - 10 -
18.05.2019 14:00:00 18,1 14,7 13 7 E 1004,7 10 -
18.05.2019 13:00:00 16,0 14,0 11 6 E - 8 -
18.05.2019 12:00:00 16,0 14,0 8 4 NE - 8 -
18.05.2019 11:00:00 16,3 14,0 2 1 - 1005,4 8 0,0
18.05.2019 10:00:00 16,0 14,0 15 8 E - 10 -
18.05.2019 09:00:00 16,0 14,0 11 6 E - 10 -
18.05.2019 08:00:00 14,8 13,1 9 5 SE 1005,2 10 -
18.05.2019 07:00:00 15,0 13,0 5 3 - - 10 -
18.05.2019 06:00:00 15,0 12,0 9 5 E - 10 -
18.05.2019 05:00:00 14,6 12,9 11 6 E 1006,0 10 0,0
18.05.2019 04:00:00 14,0 13,0 9 5 E - 10 -
18.05.2019 03:00:00 14,0 12,0 5 3 SE - 10 -
18.05.2019 02:00:00 13,7 11,9 9 5 E 1007,4 10 -
18.05.2019 01:00:00 14,0 12,0 4 2 - - 10 -
18.05.2019 00:00:00 15,0 11,0 9 5 ESE - 10 -
17.05.2019 23:00:00 14,6 11,7 9 5 ESE 1008,3 10 0,0
17.05.2019 22:00:00 15,0 12,0 11 6 E - 10 -
17.05.2019 21:00:00 15,0 12,0 16 9 E - 10 -
17.05.2019 20:00:00 15,2 12,0 15 8 E 1007,9 10 -
17.05.2019 19:00:00 15,0 12,0 21 11 E - 10 -
17.05.2019 18:00:00 16,0 12,0 21 11 E - 10 -
17.05.2019 17:00:00 15,7 12,1 18 10 E 1009,0 10 0,0
17.05.2019 16:00:00 17,0 12,0 18 10 E - 10 -
17.05.2019 15:00:00 16,0 13,0 18 10 E - 10 -
17.05.2019 14:00:00 15,3 11,2 16 9 ENE 1009,9 10 -
17.05.2019 13:00:00 16,0 12,0 18 10 ENE - 10 -
17.05.2019 12:00:00 16,0 12,0 18 10 ENE - 10 -
17.05.2019 11:00:00 15,0 11,2 16 9 ENE 1010,2 10 0,0
17.05.2019 10:00:00 14,0 10,0 11 6 NE - 10 -
17.05.2019 09:00:00 14,0 9,0 8 4 ENE - 10 -
17.05.2019 08:00:00 11,9 8,2 2 1 - 1010,4 10 -
17.05.2019 07:00:00 8,0 7,0 2 1 - - 10 -
17.05.2019 06:00:00 6,0 5,0 4 2 - - 10 -
17.05.2019 05:00:00 6,3 5,1 2 1 - 1010,1 10 0,0
17.05.2019 04:00:00 7,0 6,0 4 2 S - 10 -
17.05.2019 03:00:00 8,0 6,0 2 1 - - 10 -
17.05.2019 02:00:00 7,6 6,1 5 3 S 1010,9 10 -
17.05.2019 01:00:00 9,0 7,0 4 2 SSW - 10 -
17.05.2019 00:00:00 9,0 7,0 4 2 S - 10 -
16.05.2019 23:00:00 10,9 8,0 2 1 S 1011,5 10 0,0
16.05.2019 22:00:00 11,0 8,0 4 2 S - 10 -
16.05.2019 21:00:00 13,0 7,0 5 3 SE - 10 -
16.05.2019 20:00:00 14,8 6,5 2 1 - 1011,1 10 -
16.05.2019 19:00:00 16,0 8,0 5 3 ENE - 10 -
16.05.2019 18:00:00 16,0 8,0 8 4 N - 10 -
16.05.2019 17:00:00 15,5 8,1 9 5 N 1011,5 10 0,0
16.05.2019 16:00:00 15,0 7,0 9 5 N - 10 -
16.05.2019 15:00:00 15,0 7,0 11 6 ENE - 10 -
16.05.2019 14:00:00 15,3 7,5 11 6 ENE 1012,6 10 -
16.05.2019 13:00:00 15,0 6,0 11 6 NE - 10 -
16.05.2019 12:00:00 15,0 7,0 11 6 N - 10 -
16.05.2019 11:00:00 14,4 7,5 11 6 N 1013,4 10 0,0
16.05.2019 10:00:00 14,0 8,0 11 6 WNW - 10 -
16.05.2019 09:00:00 13,0 7,0 16 9 WNW - 10 -
16.05.2019 08:00:00 11,7 6,4 16 9 W 1013,4 10 -
16.05.2019 07:00:00 11,0 6,0 13 7 W - 10 -
16.05.2019 06:00:00 10,0 6,0 11 6 W - 10 -
16.05.2019 05:00:00 9,8 6,3 13 7 W 1013,0 10 0,0
16.05.2019 04:00:00 10,0 6,0 15 8 W - 10 -
16.05.2019 03:00:00 10,0 6,0 21 11 W - 10 -
16.05.2019 02:00:00 8,7 6,5 5 3 W 1014,1 10 -
16.05.2019 01:00:00 9,0 6,0 8 4 W - 10 -
16.05.2019 00:00:00 8,0 6,0 5 3 SW - 10 -
15.05.2019 23:00:00 7,5 5,6 5 3 SW 1014,5 10 0,0
15.05.2019 22:00:00 11,0 6,0 5 3 WNW - 10 -
15.05.2019 21:00:00 12,0 6,0 8 4 N - 10 -
15.05.2019 20:00:00 11,9 5,8 11 6 N 1013,9 10 -
15.05.2019 19:00:00 13,0 7,0 15 8 N - 10 -
15.05.2019 18:00:00 25,0 20,0 9 5 ENE - 10 -
15.05.2019 17:00:00 13,1 6,3 16 9 N 1013,6 10 0,0
15.05.2019 16:00:00 12,0 7,0 11 6 NNW - 10 -
15.05.2019 15:00:00 11,0 7,0 9 5 W - 10 -
15.05.2019 14:00:00 10,5 7,5 15 8 W 1014,0 10 -
15.05.2019 13:00:00 11,0 7,0 18 10 W - 10 -

tt = temperature
td = dewpoint
ff = wind speed
dd = wind direction
ppp = reduced air pressure
vv = visibility
rr = precipitation

Next stations